Location: Cronhütte
(48.9135°N, 9.6869°E)
Time: 03:37:53
(UTC+00:00)

DELTA 2 R/B (1) - Pass Details

Date: 23 May 2024
Orbit: 788 x 801 km, 39.6° (Epoch: 19 June)

Event Time Altitude Azimuth Distance (km) Brightness Sun altitude
Exits shadow 02:07:04 11° 248° (WSW) 2,311 5.4 -10.9°
Maximum altitude 02:11:33 27° 192° (SSW) 1,463 4.5 -10.4°
Drops below altitude 10° 02:16:09 10° 136° (SE) 2,345 6.0 -9.9°
Sets 02:18:56 0° 125° (SE) 3,271 6.9 -9.6°
